Meteo pe oră la 1-e Itkulovo

Astăzi, 13 Iunie, Duminică

Timp Temperatura Precipitaţii Vânt Presiune Umiditate
00:00 +17°C° 0.3 mm 3 m/s 718 mmHg 74%
01:00 +16°C° 0.3 mm 2 m/s 718 mmHg 82%
02:00 +16°C° 0.1 mm 3 m/s 718 mmHg 77%
03:00 +16°C° 0.1 mm 3 m/s 719 mmHg 72%
04:00 +14°C° 0.1 mm 4 m/s 719 mmHg 67%
05:00 +15°C° 0 mm 4 m/s 719 mmHg 61%
06:00 +15°C° 0 mm 4 m/s 719 mmHg 56%
07:00 +17°C° 0 mm 4 m/s 720 mmHg 51%
08:00 +17°C° 0.5 mm 4 m/s 720 mmHg 61%
09:00 +16°C° 0.5 mm 3 m/s 720 mmHg 71%
10:00 +16°C° 0.5 mm 3 m/s 720 mmHg 81%
11:00 +15°C° 0.8 mm 4 m/s 720 mmHg 78%
12:00 +15°C° 0.8 mm 4 m/s 720 mmHg 75%
13:00 +15°C° 0.8 mm 5 m/s 720 mmHg 72%
14:00 +17°C° 0 mm 5 m/s 720 mmHg 63%
15:00 +20°C° 0 mm 5 m/s 720 mmHg 55%
16:00 +22°C° 0 mm 6 m/s 720 mmHg 47%
17:00 +21°C° 0 mm 4 m/s 720 mmHg 52%
18:00 +21°C° 0 mm 3 m/s 720 mmHg 57%
19:00 +20°C° 0 mm 2 m/s 720 mmHg 63%
20:00 +19°C° 0 mm 2 m/s 720 mmHg 59%
21:00 +18°C° 0 mm 2 m/s 720 mmHg 56%
22:00 +17°C° 0 mm 2 m/s 720 mmHg 53%
23:00 +17°C° 0 mm 2 m/s 720 mmHg 53%

Mâine, 14 Iunie, Luni

Timp Temperatura Precipitaţii Vânt Presiune Umiditate
00:00 +16°C° 0 mm 2 m/s 720 mmHg 52%
01:00 +15°C° 0 mm 2 m/s 720 mmHg 52%
02:00 +15°C° 0 mm 2 m/s 720 mmHg 50%
03:00 +15°C° 0 mm 2 m/s 720 mmHg 49%
04:00 +15°C° 0 mm 2 m/s 721 mmHg 48%
05:00 +16°C° 0 mm 3 m/s 721 mmHg 48%
06:00 +18°C° 0 mm 3 m/s 721 mmHg 49%
07:00 +19°C° 0 mm 4 m/s 721 mmHg 50%
08:00 +20°C° 0 mm 4 m/s 722 mmHg 46%
09:00 +22°C° 0 mm 5 m/s 722 mmHg 43%
10:00 +24°C° 0 mm 6 m/s 722 mmHg 39%
11:00 +24°C° 0 mm 6 m/s 722 mmHg 37%
12:00 +26°C° 0 mm 6 m/s 722 mmHg 35%
13:00 +27°C° 0 mm 6 m/s 722 mmHg 34%
14:00 +27°C° 0 mm 5 m/s 722 mmHg 34%
15:00 +27°C° 0 mm 4 m/s 722 mmHg 35%
16:00 +27°C° 0 mm 4 m/s 721 mmHg 36%
17:00 +26°C° 0 mm 3 m/s 721 mmHg 43%
18:00 +24°C° 0 mm 2 m/s 721 mmHg 50%
19:00 +23°C° 0 mm 2 m/s 721 mmHg 57%
20:00 +22°C° 0 mm 1 m/s 720 mmHg 57%
21:00 +20°C° 0 mm 1 m/s 720 mmHg 56%
22:00 +19°C° 0 mm 1 m/s 720 mmHg 56%
23:00 +18°C° 0 mm 1 m/s 720 mmHg 56%

Poimâine, 15 Iunie, Marţi

Timp Temperatura Precipitaţii Vânt Presiune Umiditate
00:00 +18°C° 0 mm 1 m/s 720 mmHg 57%
01:00 +16°C° 0 mm 1 m/s 720 mmHg 57%
02:00 +16°C° 0 mm 1 m/s 720 mmHg 58%
03:00 +16°C° 0 mm 1 m/s 720 mmHg 59%
04:00 +15°C° 0 mm 1 m/s 720 mmHg 60%
05:00 +18°C° 0 mm 1 m/s 720 mmHg 58%
06:00 +20°C° 0 mm 1 m/s 720 mmHg 56%
07:00 +21°C° 0 mm 2 m/s 721 mmHg 55%
08:00 +23°C° 0 mm 2 m/s 721 mmHg 50%
09:00 +25°C° 0 mm 3 m/s 720 mmHg 46%
10:00 +26°C° 0 mm 3 m/s 720 mmHg 42%
11:00 +27°C° 0 mm 3 m/s 720 mmHg 40%
12:00 +27°C° 0 mm 3 m/s 720 mmHg 38%
13:00 +28°C° 0 mm 3 m/s 720 mmHg 35%
14:00 +28°C° 0 mm 3 m/s 719 mmHg 35%
15:00 +28°C° 0 mm 3 m/s 719 mmHg 34%
16:00 +28°C° 0 mm 3 m/s 719 mmHg 34%
17:00 +27°C° 0 mm 2 m/s 719 mmHg 41%
18:00 +26°C° 0 mm 1 m/s 718 mmHg 48%
19:00 +25°C° 0 mm 1 m/s 718 mmHg 55%
20:00 +23°C° 0 mm 1 m/s 718 mmHg 55%
21:00 +21°C° 0 mm 1 m/s 717 mmHg 55%
22:00 +20°C° 0 mm 1 m/s 717 mmHg 54%
23:00 +19°C° 0 mm 1 m/s 717 mmHg 55%

16 Iunie, Miercuri

Timp Temperatura Precipitaţii Vânt Presiune Umiditate
00:00 +19°C° 0 mm 1 m/s 717 mmHg 55%
01:00 +18°C° 0 mm 1 m/s 717 mmHg 55%
02:00 +18°C° 0 mm 1 m/s 717 mmHg 56%
03:00 +18°C° 0 mm 1 m/s 717 mmHg 57%
04:00 +18°C° 0 mm 1 m/s 717 mmHg 58%
05:00 +20°C° 0 mm 1 m/s 717 mmHg 56%
06:00 +21°C° 0 mm 1 m/s 717 mmHg 54%
07:00 +23°C° 0 mm 2 m/s 718 mmHg 53%
08:00 +25°C° 0 mm 2 m/s 718 mmHg 48%
09:00 +27°C° 0 mm 3 m/s 718 mmHg 43%
10:00 +28°C° 0 mm 4 m/s 718 mmHg 39%
11:00 +29°C° 0 mm 4 m/s 717 mmHg 37%
12:00 +29°C° 0 mm 4 m/s 717 mmHg 35%
13:00 +30°C° 0 mm 4 m/s 717 mmHg 33%
14:00 +30°C° 0 mm 4 m/s 717 mmHg 35%
15:00 +30°C° 0 mm 4 m/s 717 mmHg 36%
16:00 +30°C° 0 mm 4 m/s 717 mmHg 37%
17:00 +29°C° 0 mm 3 m/s 716 mmHg 43%
18:00 +27°C° 0 mm 2 m/s 716 mmHg 49%
19:00 +26°C° 0 mm 2 m/s 716 mmHg 55%
20:00 +25°C° 0 mm 2 m/s 715 mmHg 54%
21:00 +24°C° 0 mm 2 m/s 715 mmHg 53%
22:00 +21°C° 0 mm 2 m/s 715 mmHg 52%
23:00 +21°C° 0 mm 2 m/s 714 mmHg 51%

17 Iunie, Joi

Timp Temperatura Precipitaţii Vânt Presiune Umiditate
00:00 +20°C° 0 mm 2 m/s 714 mmHg 51%
01:00 +20°C° 0 mm 2 m/s 713 mmHg 51%
02:00 +19°C° 0.2 mm 2 m/s 713 mmHg 60%
03:00 +18°C° 0.2 mm 2 m/s 713 mmHg 69%
04:00 +16°C° 0.2 mm 1 m/s 713 mmHg 78%
05:00 +18°C° 0 mm 2 m/s 713 mmHg 76%
06:00 +20°C° 0 mm 2 m/s 713 mmHg 73%
07:00 +21°C° 0 mm 2 m/s 712 mmHg 71%
08:00 +23°C° 0 mm 4 m/s 712 mmHg 64%
09:00 +24°C° 0 mm 6 m/s 712 mmHg 57%
10:00 +27°C° 0 mm 7 m/s 712 mmHg 50%
11:00 +27°C° 0 mm 7 m/s 712 mmHg 51%
12:00 +27°C° 0 mm 8 m/s 712 mmHg 53%
13:00 +27°C° 0 mm 8 m/s 712 mmHg 54%
14:00 +26°C° 0.1 mm 8 m/s 712 mmHg 61%
15:00 +24°C° 0.1 mm 7 m/s 712 mmHg 68%
16:00 +23°C° 0.1 mm 7 m/s 711 mmHg 75%
17:00 +21°C° 0.1 mm 6 m/s 711 mmHg 79%
18:00 +20°C° 0.1 mm 6 m/s 711 mmHg 83%
19:00 +17°C° 0.1 mm 6 m/s 711 mmHg 87%
20:00 +16°C° 0 mm 6 m/s 712 mmHg 86%
21:00 +15°C° 0 mm 7 m/s 712 mmHg 85%
22:00 +14°C° 0 mm 7 m/s 712 mmHg 84%
23:00 +12°C° 0 mm 7 m/s 712 mmHg 83%

18 Iunie, Vineri

Timp Temperatura Precipitaţii Vânt Presiune Umiditate
00:00 +10°C° 0 mm 7 m/s 713 mmHg 83%
01:00 +9°C° 0 mm 7 m/s 713 mmHg 83%
02:00 +9°C° 0 mm 6 m/s 713 mmHg 84%
03:00 +8°C° 0 mm 6 m/s 713 mmHg 84%
04:00 +7°C° 0 mm 6 m/s 714 mmHg 85%
05:00 +8°C° 0 mm 7 m/s 714 mmHg 77%
06:00 +9°C° 0 mm 7 m/s 714 mmHg 69%
07:00 +9°C° 0 mm 8 m/s 715 mmHg 62%
08:00 +10°C° 0 mm 8 m/s 715 mmHg 53%
09:00 +12°C° 0 mm 8 m/s 715 mmHg 45%
10:00 +13°C° 0 mm 8 m/s 716 mmHg 37%
11:00 +15°C° 0 mm 8 m/s 716 mmHg 35%
12:00 +16°C° 0 mm 8 m/s 716 mmHg 33%
13:00 +17°C° 0 mm 8 m/s 716 mmHg 31%
14:00 +17°C° 0 mm 8 m/s 716 mmHg 31%
15:00 +17°C° 0 mm 8 m/s 717 mmHg 31%
16:00 +17°C° 0 mm 8 m/s 717 mmHg 31%
17:00 +16°C° 0 mm 7 m/s 717 mmHg 37%
18:00 +15°C° 0 mm 7 m/s 717 mmHg 43%
19:00 +14°C° 0 mm 7 m/s 718 mmHg 50%
20:00 +13°C° 0 mm 6 m/s 718 mmHg 54%
21:00 +12°C° 0 mm 5 m/s 718 mmHg 58%
22:00 +11°C° 0 mm 4 m/s 719 mmHg 63%
23:00 +10°C° 0 mm 4 m/s 718 mmHg 68%
Arată mai mult

Formular de consimțământ

Meteoprog și furnizorii noștri de servicii pot stoca și accesa date personale, precum cookies, identificatori de dispozitiv sau alte tehnologii similare pe dispozitivul dumneavoastră și procesa astfel de date pentru a personaliza conținutul și reclamele, dar și pentru a oferi caracteristici de social media și pentru a analiza traficul.

  • Stocarea și/sau accesarea informațiilor pe dispozitivul dumneavoastră

    Cookies, identificatori de dispozitiv sau alte informații pot fi stocate sau accesate pe dispozitiv în scopurile indicate mai sus.

  • Reclame și conținut personalizat, evaluarea reclamelor și a conținutului, informații despre audiențe și dezvoltarea produselor

    Reclamele și conținutul pot fi personalizate pe baza unui profil. Pot fi adăugate date suplimentare pentru a personaliza mai bine reclamele și conținutul. Performanța reclamelor și conținutului poate fi măsurată. Pot fi obținute informații despre utilizatorii care au văzut reclamele și conținutul. Aceste date pot fi utilizate pentru a dezvolta sau îmbunătăți experiența utilizatorilor, sistemele și software-ul.

Dând clic pe ‘Sunt de acord’, permiteți utilizarea cookie-urilor menționate, a identificatorilor de dispozitiv, balizelor web sau altor tehnologii similare. Setările pot fi modificate din browser-ul dispozitivului dumneavoastră.

În anumite scopuri, interesele legitime pot prima asupra consimțământului. Puteți citi mai multe informații în acest sens în Politica privind Confidențialitatea Datelor și Cookie.